Regional Weather Roundup
Issued by NWS

Home | Current Version | Previous Version | Text Only | Print | Product List | Glossary On
Versions: 1 2 3 4 5 6 7 8 9 10 11 12 13 14 15 16 17 18 19 20 21 22 23 24 25 26 27 28 29 30 31 32 33 34 35 36 37 38 39 40 41 42 43 44 45 46 47 48 49 50
000
ASUS43 KDMX 240706
RWRIA

WEATHER ROUNDUP FOR IOWA
NATIONAL WEATHER SERVICE DES MOINES IA
100 AM CST WED JAN 24 2018

NOTE: "FAIR" INDICATES FEW OR NO CLOUDS BELOW 12,000 FEET WITH NO
SIGNIFICANT WEATHER AND/OR OBSTRUCTIONS TO VISIBILITY.

* - THESE STATIONS ARE NOT NWS STATIONS...THUS NOT UNDER NWS
QUALITY CONTROL.  THEY ALSO DO NOT REPORT WEATHER SUCH
AS PRECIPITATION OR FOG.

IAZ001>003-012>014-020>022-031>034-043>046-240800-
   NORTHWEST IOWA

CITY           SKY/WX    TMP DP  RH WIND       PRES   REMARKS
CARROLL *      CLOUDY    25  23  93 NW9       30.21S FOG     WCI  15
CHEROKEE *     CLOUDY    25  24  99 NW7       30.22S WCI  17
DENISON *      CLOUDY    21  21 100 CALM      30.23S
LE MARS *      FOG       21  19  93 CALM      30.22S VSB 1
ORANGE CITY *  CLOUDY    25  25 100 N6        30.20S WCI  18
SHELDON *      CLOUDY    25  23  93 N7        30.18S WCI  17
SIOUX CITY     FOG       13  10  88 CALM      30.23S VSB 1/4
SPENCER        MIX PCPN  24  21  88 NW7       30.20S WCI  16
STORM LAKE *   CLOUDY    23  23 100 NW9       30.19S FOG     WCI  13
$$

IAZ055>058-069>071-079>083-090>094-240800-
   SOUTHWEST IOWA

CITY           SKY/WX    TMP DP  RH WIND       PRES   REMARKS
ATLANTIC *     MOCLDY    19  19 100 CALM      30.22R FOG
AUDUBON *      PTCLDY    21  19  93 CALM      30.21S
CLARINDA *     PTCLDY    19  19 100 CALM      30.25S
COUNCIL BLFS * CLEAR     23  23 100 W7        30.21F FOG     WCI  15
CRESTON *      CLOUDY    23  21  93 W5        30.22S FOG     WCI  17
HARLAN  *      PTCLDY    19  19 100 CALM      30.26R
LAMONI         CLOUDY    25  21  85 W5        30.22S WCI  19
RED OAK *      CLEAR     19  19 100 CALM      30.23S
SHENANDOAH *   CLEAR     21  19  93 CALM      30.24F
$$

IAZ047>049-059>061-072>074-084-240800-
   CENTRAL IOWA

CITY           SKY/WX    TMP DP  RH WIND       PRES   REMARKS
AMES           FLURRIES  26  24  92 W5        30.22S WCI  20
ANKENY *       CLOUDY    27  23  86 W3        30.23F
BOONE *        CLOUDY    25  23  93 NW8       30.20S WCI  16
CHARITON *     CLOUDY    25  23  93 CALM      30.22F
DES MOINES     CLOUDY    26  21  81 W3        30.22F
GRINNELL*      CLOUDY    24  21  89 CALM      30.23S
KNOXVILLE *    CLOUDY    27  21  80 CALM      30.21F
MARSHALLTOWN   CLOUDY    24  21  88 W6        30.21S WCI  17
NEWTON *       CLOUDY    25  21  86 W6        30.22F WCI  18
PELLA *        CLOUDY    26  21  83 NW5       30.24F WCI  20
PERRY *        CLOUDY    25  23  92 NW5       30.22S WCI  19
$$

IAZ004>006-015-016-023>025-035-036-240800-
   NORTH CENTRAL IOWA

CITY           SKY/WX    TMP DP  RH WIND       PRES   REMARKS
ALGONA *       CLOUDY    23 N/A N/A W7        30.20S WCI  15
CLARION *      CLOUDY    23  23 100 W5        30.21R WCI  17
ESTHERVILLE    CLOUDY    22  21  96 W8        30.19S WCI  12
FORT DODGE *   CLOUDY    23  21  92 W5        30.22R WCI  17
MASON CITY     PTCLDY    19  16  88 W9        30.20R WCI   8
FOREST CITY *    N/A     19  18  93 W3        30.20R
WEBSTER CITY * CLOUDY    25  21  86 NW8       30.20R WCI  16
IOWA FALLS *   CLOUDY    25  22  88 W9        30.21S WCI  16
$$

IAZ007>011-017>019-026>030-037>042-050>054-066-240800-
   NORTHEAST IOWA

CITY           SKY/WX    TMP DP  RH WIND       PRES   REMARKS
CEDAR RAPIDS     N/A     23  18  81 NW7       30.20S WCI  15
CHARLES CITY * CLOUDY    21  23 100 NW6       30.19R WCI  14
CLINTON *      CLOUDY    25  21  85 N8        30.21S WCI  16
DECORAH *      CLOUDY    19  18  93 CALM      30.17S
DUBUQUE        CLOUDY    22  18  85 NW8       30.18S WCI  12
MONTICELLO *   CLOUDY    23  19  86 NW8       30.20S WCI  14
OELWEIN *      CLOUDY    21  21 100 NW5       30.19S WCI  15
WATERLOO       CLOUDY    21  18  88 W3        30.20F
$$

IAZ064-065-067-068-078-240800-
   EAST CENTRAL IOWA

CITY           SKY/WX    TMP DP  RH WIND       PRES   REMARKS
DAVENPORT      CLOUDY    26  18  71 NW9       30.22S WCI  17
IOWA CITY        N/A     25  17  72 NW6       30.24S WCI  18
MT. PLEASANT * CLOUDY    27  19  74 NW6       30.23S WCI  20
MUSCATINE *    CLOUDY    27  19  74 NW6       30.23F WCI  20
QUAD CITIES    CLOUDY    26  18  71 W8        30.21S WCI  18
$$

IAZ062-063-075>077-085>089-095>099-240800-
   SOUTHEAST IOWA

CITY           SKY/WX    TMP DP  RH WIND       PRES   REMARKS
BURLINGTON     CLOUDY    27  19  72 NW7       30.22S WCI  19
FAIRFIELD *    CLOUDY    27  19  74 NW8       30.22F WCI  18
FORT MADISON * CLOUDY    27  21  80 W7        30.24R WCI  19
KEOKUK *       CLOUDY    28  21  74 W7        30.23S WCI  21
OSKALOOSA *    CLOUDY    26  21  83 NW7       30.23S WCI  18
OTTUMWA        CLOUDY    26  19  74 NW5       30.22F WCI  20
WASHINGTON *   CLOUDY    27  21  80 NW10      30.24S WCI  17
$$

ABBREVIATIONS USED IN REMARKS
   TC - TEMPERATURES IN CELSIUS
  WCI - WIND CHILL INDEX
   HX - HEAT INDEX
  VSB - VISIBILITY
$$




USA.gov is the U.S. government's official web portal to all federal, state and local government web resources and services.